period_start,C,m1,H,J0,J1,J2,J3,J4,J5,JA,JB,JC,JD,JJ,JK,JN,#
2013-08-10 00:00:28,0.10,0.64,0.00,30.74,33.62,35.66,5.68,31.42,1014.66,2024.00,3147.00,3117.28,3387.32,349.02,314.23,14.32,0000 0000 0000 0000 000000
2013-08-10 00:01:28,0.09,0.64,0.00,30.73,33.62,35.66,5.86,31.50,1014.66,2024.00,3146.99,3117.15,3387.14,350.63,315.25,14.32,0000 0000 0000 0000 000000
2013-08-10 00:02:28,0.05,0.64,0.00,30.74,33.62,35.70,5.94,31.75,1014.66,2024.00,3146.89,3117.05,3387.05,350.11,315.20,14.33,0000 0000 0000 0000 000000
2013-08-10 00:03:29,0.04,0.64,0.00,30.79,33.63,35.75,5.87,31.50,1014.66,2024.00,3146.80,3117.02,3387.02,350.14,315.19,14.34,0000 0000 0000 0000 000000
2013-08-10 00:04:29,0.03,0.64,0.00,30.84,33.65,35.74,5.85,31.46,1014.66,2024.00,3146.62,3117.00,3387.00,350.16,315.15,14.34,0000 0000 0000 0000 000000
2013-08-10 00:05:29,0.01,0.64,0.00,30.79,33.65,35.79,5.80,31.38,1014.66,2024.00,3146.52,3117.00,3387.00,350.67,315.80,14.35,0000 0000 0000 0000 000000
2013-08-10 00:06:29,0.02,0.64,0.00,30.77,33.65,35.79,5.74,31.42,1014.66,2024.00,3146.23,3116.97,3386.97,350.15,315.60,14.35,0000 0000 0000 0000 000000
2013-08-10 00:07:29,0.04,0.64,0.00,30.85,33.66,35.82,5.68,31.38,1014.66,2024.00,3146.09,3116.94,3386.92,350.21,315.75,14.36,0000 0000 0000 0000 000000
2013-08-10 00:08:30,0.03,0.64,0.00,30.88,33.67,35.88,5.82,31.50,1014.66,2024.00,3146.04,3116.92,3386.71,349.43,314.33,14.37,0000 0000 0000 0000 000000
2013-08-10 00:09:30,0.05,0.64,0.00,30.87,33.67,35.80,5.91,31.38,1014.66,2024.00,3146.01,3116.82,3386.44,349.97,315.22,14.37,0000 0000 0000 0000 000000
2013-08-10 00:10:30,0.06,0.64,0.00,30.89,33.68,35.81,5.80,31.38,1014.66,2024.00,3145.99,3116.66,3386.24,350.19,315.12,14.38,0000 0000 0000 0000 000000
2013-08-10 00:11:31,0.04,0.64,0.00,30.88,33.69,35.83,5.87,31.67,1014.66,2024.00,3145.97,3116.48,3386.12,349.91,314.88,14.38,0000 0000 0000 0000 000000
2013-08-10 00:12:31,0.07,0.64,0.00,30.87,33.70,35.82,5.83,31.58,1014.66,2023.99,3145.89,3116.27,3386.05,350.16,315.11,14.39,0000 0000 0000 0000 000000
2013-08-10 00:13:31,0.06,0.64,0.00,30.93,33.70,35.80,5.82,31.38,1014.66,2023.99,3145.57,3116.14,3386.02,349.88,314.81,14.39,0000 0000 0000 0000 000000
2013-08-10 00:14:31,0.08,0.64,0.00,30.92,33.70,35.79,5.85,31.38,1014.66,2023.99,3145.24,3116.05,3386.00,350.62,315.49,14.40,0000 0000 0000 0000 000000
2013-08-10 00:15:32,0.06,0.64,0.00,30.91,33.72,35.82,5.67,31.21,1014.66,2023.98,3145.08,3116.01,3386.00,349.52,314.51,14.41,0000 0000 0000 0000 000000
2013-08-10 00:16:32,0.02,0.64,0.00,30.90,33.72,35.81,5.86,31.25,1014.66,2023.99,3145.03,3116.00,3385.99,351.02,315.98,14.41,0000 0000 0000 0000 000000
2013-08-10 00:17:32,0.00,0.64,0.00,30.93,33.73,35.84,5.84,31.29,1014.66,2023.95,3145.01,3116.00,3385.84,350.82,315.48,14.42,0000 0000 0000 0000 000000
2013-08-10 00:18:33,-0.01,0.64,0.00,30.96,33.74,35.88,5.74,31.17,1014.66,2023.89,3145.00,3116.00,3385.45,349.93,314.81,14.42,0000 0000 0000 0000 000000
2013-08-10 00:19:33,0.03,0.64,0.00,30.98,33.75,35.88,5.79,31.42,1014.66,2023.91,3144.95,3115.91,3385.17,349.27,314.20,14.43,0000 0000 0000 0000 000000
2013-08-10 00:20:33,0.02,0.64,0.00,30.94,33.75,35.89,5.73,31.29,1014.66,2023.84,3144.69,3115.78,3385.08,349.87,314.85,14.44,0000 0000 0000 0000 000000
2013-08-10 00:21:33,0.08,0.65,0.00,30.96,33.75,35.87,5.72,31.75,1014.66,2023.83,3144.43,3115.67,3385.04,350.32,315.18,14.44,0000 0000 0000 0000 000000
2013-08-10 00:22:34,0.03,0.64,0.00,31.01,33.77,35.90,5.73,31.38,1014.66,2023.65,3144.20,3115.31,3385.01,349.53,314.34,14.45,0000 0000 0000 0000 000000
2013-08-10 00:23:34,0.01,0.65,0.00,30.96,33.77,35.91,5.77,31.58,1014.66,2023.63,3144.08,3115.14,3385.00,349.45,314.38,14.45,0000 0000 0000 0000 000000
2013-08-10 00:24:34,0.02,0.65,0.00,30.97,33.77,35.91,6.00,31.58,1014.66,2023.55,3144.03,3115.06,3384.99,350.87,315.66,14.46,0000 0000 0000 0000 000000
2013-08-10 00:25:35,-0.07,0.64,0.00,31.00,33.79,35.91,5.79,31.29,1014.66,2023.39,3144.00,3115.02,3384.86,350.49,315.70,14.47,0000 0000 0000 0000 000000
2013-08-10 00:26:35,-0.05,0.64,0.00,31.08,33.80,35.91,5.83,31.46,1014.66,2023.32,3143.93,3115.00,3384.47,349.73,314.74,14.47,0000 0000 0000 0000 000000
2013-08-10 00:27:35,-0.01,0.64,0.00,31.07,33.80,35.97,5.81,31.58,1014.66,2023.23,3143.85,3115.00,3384.24,350.47,315.02,14.48,0000 0000 0000 0000 000000
2013-08-10 00:28:35,0.01,0.64,0.00,31.04,33.81,35.96,5.77,31.42,1014.66,2023.15,3143.51,3114.97,3384.09,349.81,314.62,14.48,0000 0000 0000 0000 000000
2013-08-10 00:29:36,-0.02,0.64,0.00,31.05,33.82,35.96,5.68,31.17,1014.66,2023.09,3143.25,3114.88,3384.03,349.49,314.34,14.49,0000 0000 0000 0000 000000
2013-08-10 00:30:36,0.03,0.64,0.00,31.06,33.82,35.98,5.76,31.21,1014.66,2023.06,3143.10,3114.60,3384.01,349.62,314.06,14.49,0000 0000 0000 0000 000000
2013-08-10 00:31:36,0.06,0.64,0.00,31.06,33.83,36.01,5.89,31.25,1014.66,2023.02,3143.03,3114.33,3384.00,350.31,315.05,14.50,0000 0000 0000 0000 000000
2013-08-10 00:32:37,0.04,0.65,0.00,31.11,33.85,36.02,5.85,31.33,1014.66,2023.02,3143.00,3114.15,3383.84,350.34,315.03,14.51,0000 0000 0000 0000 000000
2013-08-10 00:33:37,0.05,0.65,0.00,31.10,33.85,36.03,5.80,31.38,1014.66,2023.00,3142.97,3114.07,3383.52,349.04,314.56,14.51,0000 0000 0000 0000 000000
2013-08-10 00:34:37,0.07,0.65,0.00,31.12,33.85,36.04,5.86,31.92,1014.66,2023.00,3142.66,3114.02,3383.22,349.66,314.64,14.52,0000 0000 0000 0000 000000
2013-08-10 00:35:37,0.08,0.65,0.00,31.12,33.87,36.04,5.70,31.33,1014.66,2023.01,3142.30,3114.00,3383.12,349.42,314.20,14.52,0000 0000 0000 0000 000000
2013-08-10 00:36:38,0.06,0.65,0.00,31.12,33.87,36.02,5.80,31.75,1014.66,2023.00,3142.11,3114.00,3383.04,350.19,314.89,14.53,0000 0000 0000 0000 000000
2013-08-10 00:37:38,0.03,0.65,0.00,31.15,33.87,36.03,5.83,31.33,1014.66,2023.00,3142.04,3113.98,3383.01,349.95,314.64,14.54,0000 0000 0000 0000 000000
2013-08-10 00:38:38,0.01,0.65,0.00,31.23,33.89,36.04,5.82,31.33,1014.66,2023.00,3142.00,3113.93,3383.00,349.71,314.34,14.54,0000 0000 0000 0000 000000
2013-08-10 00:39:39,0.02,0.65,0.00,31.23,33.90,36.08,5.84,31.67,1014.66,2023.00,3141.99,3113.64,3382.95,350.26,314.83,14.55,0000 0000 0000 0000 000000
2013-08-10 00:40:39,0.06,0.65,0.00,31.21,33.90,36.08,5.78,31.38,1014.66,2023.00,3141.87,3113.33,3382.74,349.49,314.17,14.55,0000 0000 0000 0000 000000
2013-08-10 00:41:39,0.12,0.65,0.00,31.19,33.90,36.11,5.78,31.25,1014.66,2023.00,3141.54,3113.13,3382.39,349.39,314.10,14.56,0000 0000 0000 0000 000000
2013-08-10 00:42:39,0.13,0.65,0.00,31.19,33.92,36.11,5.82,31.71,1014.66,2022.99,3141.24,3113.05,3382.16,350.34,314.95,14.56,0000 0000 0000 0000 000000
2013-08-10 00:43:40,0.08,0.65,0.00,31.20,33.92,36.10,5.86,31.67,1014.66,2022.97,3141.09,3113.01,3382.05,350.91,315.20,14.57,0000 0000 0000 0000 000000
2013-08-10 00:44:40,0.03,0.65,0.00,31.22,33.93,36.08,5.85,31.92,1014.66,2022.98,3141.03,3113.00,3382.02,349.56,314.43,14.58,0000 0000 0000 0000 000000
2013-08-10 00:45:40,0.01,0.65,0.00,31.25,33.94,36.12,5.73,31.42,1014.66,2022.96,3141.00,3113.00,3382.00,350.27,314.83,14.58,0000 0000 0000 0000 000000
2013-08-10 00:46:40,0.00,0.65,0.00,31.31,33.95,36.15,5.76,31.83,1014.66,2022.93,3140.96,3112.96,3381.98,349.67,314.22,14.59,0000 0000 0000 0000 000000
2013-08-10 00:47:41,0.01,0.65,0.00,31.38,33.95,36.17,5.76,31.29,1014.66,2022.89,3140.74,3112.87,3381.83,348.90,313.46,14.59,0000 0000 0000 0000 000000
2013-08-10 00:48:41,0.03,0.65,0.00,31.36,33.97,36.15,5.83,31.38,1014.66,2022.86,3140.35,3112.64,3381.46,349.63,314.14,14.60,0000 0000 0000 0000 000000
2013-08-10 00:49:41,0.15,0.65,0.00,31.37,33.97,36.15,5.74,31.13,1014.66,2022.85,3140.13,3112.35,3381.24,349.14,313.69,14.61,0000 0000 0000 0000 000000
2013-08-10 00:50:41,0.08,0.65,0.00,31.36,33.97,36.16,5.73,31.13,1014.66,2022.75,3140.05,3112.13,3381.10,350.21,314.66,14.61,0000 0000 0000 0000 000000
2013-08-10 00:51:42,0.00,0.65,0.00,31.37,33.99,36.17,5.78,31.71,1014.66,2022.61,3140.00,3112.05,3381.03,349.50,314.00,14.62,0000 0000 0000 0000 000000
2013-08-10 00:52:42,-0.07,0.65,0.00,31.40,34.00,36.20,5.77,31.50,1014.66,2022.51,3139.95,3112.01,3380.99,349.69,314.14,14.62,0000 0000 0000 0000 000000
2013-08-10 00:53:42,-0.08,0.65,0.00,31.34,34.00,36.20,5.81,31.21,1014.66,2022.32,3139.68,3112.00,3380.87,350.16,314.64,14.63,0000 0000 0000 0000 000000
2013-08-10 00:54:42,-0.05,0.65,0.00,31.42,34.02,36.21,5.83,31.25,1014.66,2022.19,3139.29,3111.91,3380.46,350.73,314.96,14.64,0000 0000 0000 0000 000000
2013-08-10 00:55:43,0.02,0.65,0.00,31.48,34.02,36.20,5.62,31.29,1014.66,2022.08,3139.10,3111.66,3380.18,348.82,313.02,14.64,0000 0000 0000 0000 000000
2013-08-10 00:56:43,0.03,0.65,0.00,31.46,34.03,36.22,5.73,31.25,1014.66,2022.06,3139.03,3111.47,3380.07,349.61,314.01,14.65,0000 0000 0000 0000 000000
2013-08-10 00:57:43,0.06,0.65,0.00,31.45,34.04,36.20,5.77,31.46,1014.66,2022.04,3138.92,3111.20,3380.02,349.45,313.88,14.65,0000 0000 0000 0000 000000
2013-08-10 00:58:43,0.05,0.65,0.00,31.44,34.05,36.21,5.75,31.21,1014.66,2022.02,3138.61,3111.07,3379.97,350.05,314.70,14.66,0000 0000 0000 0000 000000
2013-08-10 00:59:44,0.08,0.65,0.00,31.45,34.05,36.23,5.82,31.25,1014.66,2022.01,3138.28,3111.03,3379.76,350.14,314.51,14.66,0000 0000 0000 0000 000000
2013-08-10 01:00:44,0.07,0.65,0.00,31.42,34.06,36.29,5.77,31.33,1014.66,2022.00,3138.12,3111.00,3379.51,350.32,314.69,14.67,0000 0000 0000 0000 000000
2013-08-10 01:01:44,0.05,0.65,0.00,31.44,34.07,36.27,5.66,31.38,1014.66,2022.00,3138.04,3110.98,3379.27,349.60,314.07,14.68,0000 0000 0000 0000 000000
2013-08-10 01:02:44,0.04,0.65,0.00,31.49,34.07,36.30,5.80,31.13,1014.66,2022.00,3138.01,3110.83,3379.10,350.52,314.80,14.68,0000 0000 0000 0000 000000
2013-08-10 01:03:44,0.06,0.65,0.00,31.53,34.09,36.33,5.84,31.38,1014.66,2022.00,3137.96,3110.58,3379.03,349.75,314.18,14.69,0000 0000 0000 0000 000000
2013-08-10 01:04:45,0.07,0.65,0.00,31.51,34.10,36.26,5.90,31.58,1014.66,2022.00,3137.70,3110.34,3379.01,349.49,314.09,14.69,0000 0000 0000 0000 000000
2013-08-10 01:05:45,0.10,0.65,0.00,31.50,34.10,36.26,5.86,31.13,1014.66,2022.00,3137.31,3110.16,3378.96,350.68,314.91,14.70,0000 0000 0000 0000 000000
2013-08-10 01:06:45,0.10,0.65,0.00,31.50,34.11,36.26,5.78,31.42,1014.66,2021.99,3137.11,3110.07,3378.69,350.74,314.98,14.71,0000 0000 0000 0000 000000
2013-08-10 01:07:45,0.08,0.66,0.00,31.50,34.12,36.26,5.84,31.25,1014.66,2021.99,3137.04,3110.02,3378.33,350.10,314.41,14.71,0000 0000 0000 0000 000000
2013-08-10 01:08:45,0.06,0.66,0.00,31.50,34.12,36.31,5.78,31.21,1014.66,2021.99,3136.95,3109.99,3378.12,350.43,314.70,14.72,0000 0000 0000 0000 000000
2013-08-10 01:09:46,0.04,0.66,0.00,31.50,34.14,36.35,5.83,31.29,1014.66,2021.99,3136.71,3109.95,3378.04,350.60,314.85,14.72,0000 0000 0000 0000 000000
2013-08-10 01:10:46,0.07,0.66,0.00,31.51,34.15,36.36,5.80,31.38,1014.66,2021.97,3136.30,3109.70,3377.99,350.38,314.19,14.73,0000 0000 0000 0000 000000
2013-08-10 01:11:46,0.09,0.66,0.00,31.55,34.15,36.35,5.81,31.33,1014.66,2021.92,3136.11,3109.29,3377.81,351.05,315.21,14.73,0000 0000 0000 0000 000000
2013-08-10 01:12:46,0.11,0.66,0.00,31.59,34.16,36.34,5.71,31.54,1014.66,2021.91,3136.04,3109.11,3377.58,349.61,313.88,14.74,0000 0000 0000 0000 000000
2013-08-10 01:13:47,0.05,0.66,0.00,31.64,34.17,36.35,5.72,31.21,1014.66,2021.85,3135.94,3109.04,3377.26,349.76,313.94,14.75,0000 0000 0000 0000 000000
2013-08-10 01:14:47,0.04,0.66,0.00,31.65,34.18,36.35,5.81,31.13,1014.66,2021.72,3135.61,3109.01,3377.10,349.81,314.38,14.75,0000 0000 0000 0000 000000
2013-08-10 01:15:47,-0.04,0.66,0.00,31.69,34.19,36.35,5.92,31.83,1014.66,2021.67,3135.28,3109.00,3377.03,350.24,314.17,14.76,0000 0000 0000 0000 000000
2013-08-10 01:16:47,-0.02,0.66,0.00,31.69,34.20,36.37,5.74,31.25,1014.66,2021.57,3135.10,3108.98,3376.98,350.60,314.29,14.76,0000 0000 0000 0000 000000
2013-08-10 01:17:47,-0.00,0.66,0.00,31.67,34.20,36.40,5.77,31.42,1014.66,2021.43,3135.04,3108.83,3376.83,349.89,314.05,14.77,0000 0000 0000 0000 000000
2013-08-10 01:18:47,-0.07,0.66,0.00,31.68,34.22,36.39,5.83,31.17,1014.66,2021.24,3135.00,3108.42,3376.41,350.22,314.33,14.78,0000 0000 0000 0000 000000
2013-08-10 01:19:48,0.00,0.66,0.00,31.66,34.22,36.41,5.85,31.38,1014.66,2021.15,3134.92,3108.17,3376.16,350.14,314.64,14.78,0000 0000 0000 0000 000000
2013-08-10 01:20:48,0.03,0.66,0.00,31.67,34.22,36.43,5.75,31.29,1014.66,2021.12,3134.51,3108.07,3376.05,349.54,313.92,14.79,0000 0000 0000 0000 000000
2013-08-10 01:21:48,0.09,0.66,0.00,31.70,34.24,36.42,5.74,31.42,1014.66,2021.07,3134.19,3108.02,3376.00,349.88,314.01,14.79,0000 0000 0000 0000 000000
2013-08-10 01:22:48,0.02,0.66,0.00,31.72,34.25,36.41,5.77,31.38,1014.66,2021.04,3134.07,3107.95,3375.80,349.25,313.42,14.80,0000 0000 0000 0000 000000
2013-08-10 01:23:49,0.03,0.66,0.00,31.71,34.25,36.42,5.69,31.17,1014.66,2021.03,3133.95,3107.88,3375.41,350.05,314.15,14.81,0000 0000 0000 0000 000000
2013-08-10 01:24:49,0.07,0.66,0.00,31.75,34.27,36.44,5.82,31.25,1014.66,2021.01,3133.54,3107.57,3375.16,350.07,314.13,14.81,0000 0000 0000 0000 000000
2013-08-10 01:25:49,0.15,0.66,0.00,31.77,34.27,36.44,5.69,31.25,1014.66,2021.00,3133.21,3107.29,3375.05,349.76,314.05,14.82,0000 0000 0000 0000 000000
2013-08-10 01:26:49,0.11,0.66,0.00,31.75,34.28,36.46,5.77,31.25,1014.66,2021.00,3133.07,3107.10,3375.00,349.93,314.04,14.82,0000 0000 0000 0000 000000
2013-08-10 01:27:50,0.06,0.66,0.00,31.76,34.30,36.48,5.63,31.25,1014.66,2021.00,3133.02,3107.03,3374.81,349.66,314.35,14.83,0000 0000 0000 0000 000000
2013-08-10 01:28:50,0.05,0.66,0.00,31.78,34.30,36.47,5.88,31.25,1014.66,2021.00,3132.73,3106.98,3374.35,350.10,314.47,14.83,0000 0000 0000 0000 000000
2013-08-10 01:29:50,0.11,0.66,0.00,31.78,34.30,36.48,5.68,31.42,1014.66,2021.00,3132.33,3106.95,3374.13,350.12,314.14,14.84,0000 0000 0000 0000 000000
2013-08-10 01:30:50,0.09,0.66,0.00,31.80,34.32,36.53,5.97,31.38,1014.66,2021.00,3132.13,3106.80,3374.05,350.77,314.70,14.85,0000 0000 0000 0000 000000
2013-08-10 01:31:51,0.07,0.66,0.00,31.83,34.32,36.52,5.66,31.42,1014.66,2021.00,3132.02,3106.45,3374.01,349.89,313.89,14.85,0000 0000 0000 0000 000000
2013-08-10 01:32:51,0.11,0.66,0.00,31.86,34.34,36.57,5.72,31.17,1014.66,2021.00,3131.80,3106.21,3373.88,349.57,313.57,14.86,0000 0000 0000 0000 000000
2013-08-10 01:33:51,0.09,0.66,0.00,31.86,34.35,36.59,5.86,31.50,1014.66,2020.99,3131.46,3106.08,3373.55,350.28,314.20,14.86,0000 0000 0000 0000 000000
2013-08-10 01:34:51,0.12,0.66,0.00,31.86,34.35,36.58,5.80,31.38,1014.66,2020.99,3131.19,3106.03,3373.22,349.98,313.94,14.87,0000 0000 0000 0000 000000
2013-08-10 01:35:52,0.09,0.67,0.00,31.88,34.36,36.61,5.83,31.54,1014.66,2020.97,3131.06,3105.98,3373.08,349.61,313.21,14.88,0000 0000 0000 0000 000000
2013-08-10 01:36:52,0.02,0.67,0.00,31.88,34.37,36.60,5.86,31.21,1014.66,2020.94,3130.96,3105.88,3373.03,350.72,314.34,14.88,0000 0000 0000 0000 000000
2013-08-10 01:37:52,0.01,0.67,0.00,31.88,34.38,36.59,5.87,31.42,1014.68,2020.90,3130.67,3105.61,3372.95,351.04,315.17,14.89,0000 0000 0000 0000 000000
2013-08-10 01:38:53,0.09,0.67,0.00,31.86,34.40,36.63,5.90,31.21,1014.67,2020.87,3130.26,3105.29,3372.62,351.18,314.50,14.89,0000 0000 0000 0000 000000
2013-08-10 01:39:53,0.18,0.67,0.00,31.91,34.40,36.64,5.88,31.38,1014.66,2020.88,3130.09,3105.13,3372.26,350.59,313.85,14.90,0000 0000 0000 0000 000000
2013-08-10 01:40:53,0.06,0.67,0.00,31.91,34.40,36.65,5.86,31.50,1014.66,2020.84,3130.01,3105.05,3372.12,350.59,314.44,14.90,0000 0000 0000 0000 000000
2013-08-10 01:41:53,0.02,0.67,0.00,31.91,34.42,36.68,5.93,31.33,1014.66,2020.71,3129.89,3105.01,3372.04,350.69,314.52,14.91,0000 0000 0000 0000 000000
2013-08-10 01:42:53,-0.06,0.67,0.00,31.90,34.42,36.66,5.73,31.58,1014.66,2020.61,3129.46,3104.99,3371.96,349.31,313.20,14.92,0000 0000 0000 0000 000000
2013-08-10 01:43:53,-0.03,0.67,0.00,31.90,34.43,36.65,5.83,31.67,1014.66,2020.42,3129.18,3104.87,3371.73,350.24,314.12,14.92,0000 0000 0000 0000 000000
2013-08-10 01:44:53,0.00,0.67,0.00,31.97,34.45,36.66,5.87,31.42,1014.66,2020.24,3129.04,3104.61,3371.44,350.72,314.33,14.93,0000 0000 0000 0000 000000
2013-08-10 01:45:54,-0.04,0.67,0.00,32.00,34.45,36.69,5.72,31.33,1014.66,2020.15,3128.93,3104.27,3371.18,349.62,313.64,14.93,0000 0000 0000 0000 000000
2013-08-10 01:46:54,0.08,0.67,0.00,31.98,34.46,36.68,5.87,31.33,1014.66,2020.09,3128.64,3104.12,3371.06,349.75,314.03,14.94,0000 0000 0000 0000 000000
2013-08-10 01:47:54,0.02,0.67,0.00,31.99,34.47,36.70,5.69,31.29,1014.66,2020.06,3128.26,3104.04,3371.01,349.59,313.32,14.95,0000 0000 0000 0000 000000
2013-08-10 01:48:54,0.06,0.67,0.00,32.04,34.47,36.70,5.82,31.29,1014.66,2020.04,3128.09,3104.01,3370.89,350.70,313.85,14.95,0000 0000 0000 0000 000000
2013-08-10 01:49:54,0.03,0.67,0.00,32.06,34.49,36.70,5.77,31.21,1014.66,2020.04,3128.00,3103.94,3370.55,350.14,313.79,14.96,0000 0000 0000 0000 000000
2013-08-10 01:50:55,0.07,0.67,0.00,32.05,34.50,36.71,5.70,31.38,1014.67,2020.03,3127.60,3103.63,3370.22,349.73,314.11,14.96,0000 0000 0000 0000 000000
2013-08-10 01:51:55,0.17,0.67,0.00,32.02,34.50,36.69,5.72,31.33,1014.66,2020.02,3127.24,3103.33,3370.08,349.61,313.48,14.97,0000 0000 0000 0000 000000
2013-08-10 01:52:55,0.12,0.67,0.00,32.06,34.52,36.70,5.73,31.71,1014.66,2020.00,3127.07,3103.13,3369.95,349.66,313.17,14.97,0000 0000 0000 0000 000000
2013-08-10 01:53:55,0.06,0.67,0.00,32.09,34.52,36.73,5.57,31.25,1014.66,2020.00,3126.79,3103.05,3369.56,349.65,313.68,14.98,0000 0000 0000 0000 000000
2013-08-10 01:54:55,0.12,0.67,0.00,32.12,34.53,36.77,5.65,31.33,1014.66,2020.00,3126.30,3102.97,3369.21,350.04,314.01,14.99,0000 0000 0000 0000 000000
2013-08-10 01:55:55,0.12,0.67,0.00,32.11,34.55,36.79,5.73,31.38,1014.66,2020.00,3126.10,3102.78,3369.07,350.46,314.11,14.99,0000 0000 0000 0000 000000
2013-08-10 01:56:55,0.08,0.67,0.00,32.16,34.55,36.76,5.67,31.21,1014.66,2020.00,3125.91,3102.40,3368.93,350.45,314.05,15.00,0000 0000 0000 0000 000000
2013-08-10 01:57:56,0.14,0.67,0.00,32.17,34.56,36.78,5.64,31.17,1014.66,2020.00,3125.44,3102.15,3368.47,349.73,313.39,15.00,0000 0000 0000 0000 000000
2013-08-10 01:58:56,0.21,0.67,0.00,32.17,34.57,36.82,5.66,31.17,1014.66,2020.00,3125.16,3102.05,3368.17,349.66,313.62,15.01,0000 0000 0000 0000 000000
2013-08-10 01:59:56,0.08,0.68,0.00,32.17,34.57,36.82,5.81,31.71,1014.66,2019.99,3125.01,3102.01,3368.06,349.57,313.25,15.02,0000 0000 0000 0000 000000
2013-08-10 02:00:56,0.02,0.68,0.00,32.15,34.58,36.81,5.71,31.38,1014.66,2019.99,3124.67,3101.92,3367.98,350.12,313.75,15.02,0000 0000 0000 0000 000000
2013-08-10 02:01:57,0.09,0.68,0.00,32.12,34.60,36.83,5.74,31.25,1014.66,2019.98,3124.26,3101.64,3367.64,350.08,313.75,15.03,0000 0000 0000 0000 000000
2013-08-10 02:02:57,0.16,0.68,0.00,32.19,34.60,36.84,5.78,31.13,1014.66,2019.98,3124.09,3101.33,3367.30,349.68,313.40,15.03,0000 0000 0000 0000 000000
2013-08-10 02:03:57,0.14,0.68,0.00,32.23,34.61,36.85,5.74,31.29,1014.66,2019.97,3123.90,3101.14,3367.11,350.15,313.93,15.04,0000 0000 0000 0000 000000
2013-08-10 02:04:57,0.08,0.68,0.00,32.26,34.62,36.85,5.85,31.17,1014.66,2019.97,3123.40,3101.05,3367.02,350.36,313.57,15.04,0000 0000 0000 0000 000000
2013-08-10 02:05:58,0.10,0.68,0.00,32.27,34.62,36.85,5.83,31.21,1014.66,2019.89,3123.14,3100.99,3366.66,350.18,313.69,15.05,0000 0000 0000 0000 000000
2013-08-10 02:06:58,0.01,0.68,0.00,32.22,34.64,36.88,5.81,31.29,1014.66,2019.75,3122.92,3100.79,3366.24,349.77,313.37,15.06,0000 0000 0000 0000 000000
2013-08-10 02:07:58,0.03,0.68,0.00,32.24,34.65,36.91,5.75,31.21,1014.66,2019.50,3122.44,3100.33,3366.07,350.66,314.16,15.06,0000 0000 0000 0000 000000
2013-08-10 02:08:58,0.00,0.68,0.00,32.25,34.65,36.90,5.77,31.17,1014.66,2019.33,3122.15,3100.12,3365.92,349.77,313.34,15.07,0000 0000 0000 0000 000000
2013-08-10 02:09:59,-0.03,0.68,0.00,32.25,34.67,36.90,5.67,31.08,1014.66,2019.19,3121.83,3100.03,3365.52,349.44,313.18,15.07,0000 0000 0000 0000 000000
2013-08-10 02:10:59,0.01,0.68,0.00,32.29,34.67,36.91,5.67,31.21,1014.66,2019.10,3121.38,3099.94,3365.21,349.93,313.38,15.08,0000 0000 0000 0000 000000
2013-08-10 02:11:59,0.07,0.68,0.00,32.30,34.68,36.95,5.77,31.38,1014.66,2019.05,3121.14,3099.82,3365.07,350.29,313.51,15.09,0000 0000 0000 0000 000000
2013-08-10 02:12:59,0.02,0.68,0.00,32.30,34.70,36.95,5.62,31.42,1014.66,2019.04,3121.01,3099.43,3365.01,349.39,312.95,15.09,0000 0000 0000 0000 000000
2013-08-10 02:14:00,0.11,0.68,0.00,32.35,34.70,36.95,5.89,31.29,1014.66,2019.02,3120.66,3099.17,3364.68,350.83,314.22,15.10,0000 0000 0000 0000 000000
2013-08-10 02:15:00,0.15,0.68,0.00,32.38,34.72,36.96,5.73,31.17,1014.66,2019.01,3120.28,3099.05,3364.26,350.17,313.50,15.10,0000 0000 0000 0000 000000
2013-08-10 02:16:00,0.12,0.68,0.00,32.39,34.72,36.95,5.86,31.25,1014.66,2019.00,3120.07,3098.94,3364.08,349.98,313.38,15.11,0000 0000 0000 0000 000000
2013-08-10 02:17:00,0.05,0.68,0.00,32.35,34.73,36.97,5.76,31.29,1014.66,2019.00,3119.78,3098.59,3363.79,349.17,312.70,15.12,0000 0000 0000 0000 000000
2013-08-10 02:18:00,0.17,0.68,0.00,32.34,34.75,36.99,5.88,31.38,1014.66,2019.00,3119.32,3098.24,3363.36,350.62,314.01,15.12,0000 0000 0000 0000 000000
2013-08-10 02:19:01,0.19,0.68,0.00,32.38,34.75,37.01,5.63,31.17,1014.66,2019.00,3119.05,3098.08,3363.13,349.31,312.80,15.13,0000 0000 0000 0000 000000
2013-08-10 02:20:01,0.09,0.69,0.00,32.38,34.77,37.02,5.76,31.17,1014.66,2018.99,3118.58,3098.01,3363.00,350.55,313.90,15.13,0000 0000 0000 0000 000000
2013-08-10 02:21:01,0.10,0.69,0.00,32.38,34.77,37.03,5.87,31.33,1014.66,2018.96,3118.21,3097.84,3362.54,349.47,312.94,15.14,0000 0000 0000 0000 000000
2013-08-10 02:22:01,0.13,0.69,0.00,32.41,34.78,37.03,5.83,31.17,1014.66,2018.92,3117.94,3097.42,3362.20,350.63,313.95,15.14,0000 0000 0000 0000 000000
2013-08-10 02:23:02,0.14,0.69,0.00,32.45,34.80,37.04,5.63,31.21,1014.66,2018.88,3117.42,3097.16,3362.06,349.31,312.74,15.15,0000 0000 0000 0000 000000
2013-08-10 02:24:02,0.10,0.69,0.00,32.44,34.80,37.05,5.82,31.17,1014.66,2018.82,3117.06,3097.05,3361.78,350.49,313.93,15.16,0000 0000 0000 0000 000000
2013-08-10 02:25:02,0.05,0.69,0.00,32.40,34.82,37.03,5.63,31.25,1014.66,2018.85,3116.45,3096.98,3361.39,349.55,312.95,15.16,0000 0000 0000 0000 000000
2013-08-10 02:26:02,0.21,0.69,0.00,32.41,34.82,37.06,5.67,31.17,1014.66,2018.84,3116.16,3096.63,3361.15,349.87,313.79,15.17,0000 0000 0000 0000 000000
2013-08-10 02:27:02,0.14,0.69,0.00,32.43,34.83,37.07,5.86,31.38,1014.66,2018.89,3116.05,3096.29,3361.05,350.14,313.49,15.17,0000 0000 0000 0000 000000
2013-08-10 02:28:03,0.12,0.69,0.00,32.44,34.85,37.09,5.89,31.46,1014.66,2018.84,3115.87,3096.11,3360.96,350.59,313.72,15.18,0000 0000 0000 0000 000000
2013-08-10 02:29:03,0.04,0.69,0.00,32.41,34.85,37.12,5.75,31.08,1014.66,2018.69,3115.42,3096.05,3360.58,350.46,313.81,15.19,0000 0000 0000 0000 000000
2013-08-10 02:30:03,-0.00,0.69,0.00,32.43,34.87,37.12,5.88,31.17,1014.66,2018.52,3115.16,3096.00,3360.24,350.19,313.38,15.19,0000 0000 0000 0000 000000
2013-08-10 02:31:03,-0.02,0.69,0.00,32.47,34.87,37.16,5.67,31.08,1014.66,2018.44,3115.05,3095.94,3360.09,349.20,312.69,15.20,0000 0000 0000 0000 000000
2013-08-10 02:32:03,-0.03,0.69,0.00,32.53,34.88,37.14,5.85,31.21,1014.66,2018.25,3114.96,3095.69,3360.03,350.12,313.59,15.20,0000 0000 0000 0000 000000
2013-08-10 02:33:04,-0.06,0.69,0.00,32.57,34.90,37.12,5.62,31.21,1014.66,2018.14,3114.69,3095.33,3359.84,349.54,312.74,15.21,0000 0000 0000 0000 000000
2013-08-10 02:34:04,0.07,0.69,0.00,32.59,34.90,37.14,5.74,31.08,1014.66,2018.06,3114.30,3095.12,3359.43,349.74,312.97,15.21,0000 0000 0000 0000 000000
2013-08-10 02:35:04,0.09,0.69,0.00,32.53,34.91,37.18,5.68,31.21,1014.66,2018.03,3114.11,3095.04,3359.15,349.93,313.24,15.22,0000 0000 0000 0000 000000
2013-08-10 02:36:04,0.05,0.69,0.00,32.55,34.93,37.19,5.88,31.13,1014.66,2018.04,3114.00,3095.00,3359.03,350.52,313.38,15.23,0000 0000 0000 0000 000000